Miscellaneous Local Product
Issued by NWS North Platte, NE

Home | Current Version | Previous Version | Graphics & Text | Print | Product List | Glossary On
Versions: 1 2 3 4 5 6 7 8 9 10 11 12 13 14 15 16 17 18 19 20 21 22 23 24 25 26 27 28 29 30 31 32 33 34 35 36 37 38 39 40 41 42 43 44 45 46 47 48 49 50
000
AXUS43 KLBF 191010
MISLBF


WESTERN AND NORTH CENTRAL NEBRASKA HOURLY WEATHER ROUNDUP
NATIONAL WEATHER SERVICE NORTH PLATTE NE
500 AM CDT SUN APR 19 2015

***STATIONS NOT REPORTING VARIABLES SUCH AS SKY/WEATHER OR
PRESSURE ARE PROVIDED BY THE NEBRASKA DEPARTMENT OF
ROADS...RAWS...AND APRS NETWORKS...AND ARE NOT UNDER
NATIONAL WEATHER SERVICE QUALITY CONTROL***

...OBSERVATIONS IN AND NEAR THE EASTERN PANHANDLE OF NEBRASKA...

CITY           SKY/WX    TMP DP  RH WIND       PRES   REMARKS
PINE RIDGE     CLOUDY    43  33  68 NW13      30.03R
CHADRON        CLOUDY    42  36  79 NW9       30.05R
ALLIANCE       CLOUDY    42  34  73 N24G33    30.00R
SIDNEY         CLOUDY    41  35  79 N20G36    30.00R
WHITECLAY        N/A     40  32  75 NW9         N/A  WCI  33
CRESCENT LAKE    N/A     42  38  86 N22G35      N/A
BIG SPRINGS      N/A     47  44  89 N12         N/A
$$

...OBSERVATIONS IN NORTH CENTRAL NEBRASKA...

CITY           SKY/WX    TMP DP  RH WIND       PRES   REMARKS
VALENTINE      LGT RAIN  46  44  93 N20G30    29.91R
THEDFORD       DRIZZLE   47  45  93 N18G24    29.90R
AINSWORTH      DRIZZLE   46  46  98 NW17G24   29.89R
O`NEILL        CLOUDY    49  47  94 NW21G28   29.83R
ORD            CLOUDY    51  47  86 NW20G28   29.79R
BROKEN BOW     RAIN      50  47  89 N28G41    29.81R
BROWNLEE         N/A     49  47  93 NW20        N/A
SPRINGVIEW       N/A     46  44  92 NW7G18      N/A
BREWSTER         N/A     48  46  93 N14         N/A
ROSE             N/A     46  46 100 W15         N/A
NEWPORT          N/A     46  45  93 NW16        N/A
SARGENT          N/A     49  47  92 NW5G13      N/A
COMSTOCK         N/A     53  49  89 S20         N/A
EWING            N/A     50  48  93 NW17G25     N/A
$$

...OBSERVATIONS IN SOUTHWEST NEBRASKA AND FAR NORTHEAST COLORADO...

CITY           SKY/WX    TMP DP  RH WIND       PRES   REMARKS
WRAY           RAIN      46  46 100 N23G32    29.92R
HOLYOKE        DRIZZLE   45  41  87 N22G36    29.94R
IMPERIAL       LGT RAIN  46  44  93 N22G28    29.90R
OGALLALA       CLOUDY    46  43  90 N23       29.92R
NORTH PLATTE   LGT RAIN  48  45  89 N18G29    29.85S
MCCOOK         CLOUDY    50  45  83 NW23      29.83R
LEXINGTON      LGT RAIN  52  49  90 NW9       29.82R
PAXTON           N/A     49  46  88 NW9         N/A
SUTHERLAND       N/A     43  39  87 E17         N/A
BRADY            N/A     48  45  89 S5G12       N/A
GOTHENBURG       N/A     50  46  85 NW6         N/A
CALLAWAY         N/A     50  48  92 N23         N/A
$$

...NORTH PLATTE AREA...

CITY           SKY/WX    TMP DP  RH WIND       PRES   REMARKS
AIRPORT        LGT RAIN  48  45  89 N18G29    29.85S
DOWNTOWN         N/A     47  44  91 N9G18       N/A
$$

...SOME WEATHER OBSERVATIONS FROM AROUND THE REGION...

CITY           SKY/WX    TMP DP  RH WIND       PRES   REMARKS
DENVER         CLOUDY    39  33  79 N21G32    30.07R WCI  29
LARAMIE        FLURRIES  29  27  92 N15       30.11S WCI  18
CHEYENNE       MOCLDY    33  27  78 N28G40    30.07R WCI  20
SCOTTSBLUFF    MOCLDY    42  32  67 N18       30.06R
RAPID CITY     PTCLDY    38  28  67 NW18      30.04R WCI  28
PIERRE         CLOUDY    45  39  79 N23       29.88R
WINNER         LGT RAIN  48  44  86 NW20G28   29.88R FOG
SIOUX FALLS    CLOUDY    56  54  93 W12       29.72S
OMAHA          FOG       57  56  96 SE3       29.74R VSB 1/4
GRAND ISLAND   CLOUDY    52  47  83 NW10      29.77R
KANSAS CITY    RAIN      55  54  96 SW13      29.75R FOG
WICHITA        CLOUDY    51  50  96 CALM      29.73S
HAYS           PTCLDY    46  39  76 N5        29.76S
LIBERAL        CLEAR     43  34  70 W10       29.83S
GOODLAND       RAIN      43  42  97 W6        29.89R FOG
$$



USA.gov is the U.S. government's official web portal to all federal, state and local government web resources and services.